Showing default

YAOGAN-43 02A, 60945

Orbit data source: Space-Track

YAOGAN-43 02A, 60945 is a payload satellite owned by PLA GAD (CN) in LEO that was launched on Tue, 03 Sep 2024 UTC via a CHANG ZHENG 4B launch vehicle from the Xichang Space Center, China (XSC). Payload-class satellites include a variety of spacecraft equipped with specific instruments for various scientific and technological missions. These include communications satellites like Starlink; space stations such as the ISS; scientific satellites like the Hubble; Earth observation satellites from companies like Planet Labs, Umbra, and HawkEye 360; GPS; miniature CubeSats for education and research; and military/defense satellites.

Loading next visibility...
Identifier
60945, 2024-156A
Orbit
LEO
Country
Flag of CNCN / PRC
Related business
Manufacturer
SAST
Mission
Operational Defense Communications
Bus & Motor
Unknown
Mass
~300 kg wet, ~300 kg dry
Launch date (UTC)
2024-09-03 (1 year ago)
Launch vehicle
CHANG ZHENG 4B
Launch site
Xichang Space Center, China (XSC)
Object type
Payload
Rocket body
Debris
Shape & HBR
Box + 2 Pan, 2.5 m
Radar Cross Section
11.063 m², Large (>1 m²)

Expand to show TLE details & history
Last TLE update: 6 hours ago

TLE from 6 hours ago
0 YAOGAN-43 02A
1 60945U 24156A   26036.82952660  .00065629  00000-0  16440-2 0  9992
2 60945  34.9948 286.0738 0001429  15.7006 344.3758 15.38922554 79646
Epoch: 2026-02-05T19:54Z
TLE epoch observation values (Epoch: 2026-02-05T19:54:31.098Z)
Latitude
0.00001°
Longitude
-148.5319°
Altitude
447.254 km
Speed
7.647 km/s
True Right ascension
19h 04m 17s
True Declination
0° 00' 00"
Sunlit
Object was in daylight at epoch
Visualization orbit readout
Latitude
Unknown
Longitude
Unknown
Altitude
Unknown
Speed
Unknown
Apparent Right ascension
Unknown
Apparent Declination
Unknown
Sunlit
N/A
Visualization observer readout
Local Sidereal Time
04:04:34
Azimuth
Unknown
Elevation
Unknown
Doppler factor
Unknown
Orbital elements
Apogee altitude
453.544 km
Perigee altitude
451.592 km
Semi-major axis
6,830.705 km
Eccentricity
0.00014
Inclination
34.9948°
RAAN
286.0738°
Arg. of periapsis
15.7006°
True anomaly
344.37139°
Mean anomaly
344.3758°
Eccentric anomaly
344.37359°
Mean motion
3.84454 °/min
Orbital period
93.64 mins
BSTAR
0.001644
Loading maneuver chart data...
Computing Atmospheric mass density...
Loading historical data...
Loading historical data...
Loading historical data...
Loading historical data...
Loading historical data...
Loading historical data...
Loading historical data...

Documentation

Showing up to 5 results
|